This is the latest recevied weather packets stored in our database for station/object N1ICS-1. If no packets are shown the sender has not sent any weather packets the latest 10 day(s).
| Time | Temp. | Humidity | Pressure | Rain* | Wind** | Luminosity | Snow |
|---|---|---|---|---|---|---|---|
| 1777916101 | 23.89° C | 53% | 1006.5 hPa | 0 mm | - | 972 W/m² | - |
| 1777915801 | 23.33° C | 52% | 1006.5 hPa | 0 mm | - | 970 W/m² | - |
| 1777915502 | 23.33° C | 54% | 1006.6 hPa | 0 mm | - | 970 W/m² | - |
| 1777915201 | 23.33° C | 52% | 1006.7 hPa | 0 mm | - | 968 W/m² | - |
| 1777914902 | 22.22° C | 53% | 1006.6 hPa | 0 mm | - | 979 W/m² | - |
| 1777914602 | 22.22° C | 56% | 1006.8 hPa | 0 mm | - | 976 W/m² | - |
| 1777914302 | 22.22° C | 58% | 1006.7 hPa | 0 mm | - | 369 W/m² | - |
| 1777914002 | 22.22° C | 55% | 1007.1 hPa | 0 mm | - | 977 W/m² | - |
| 1777913702 | 21.67° C | 59% | 1007.2 hPa | 0 mm | - | 973 W/m² | - |
| 1777913402 | 21.67° C | 59% | 1007.1 hPa | 0 mm | - | 968 W/m² | - |
| 1777913102 | 21.67° C | 58% | 1007.4 hPa | 0 mm | - | 965 W/m² | - |
| 1777912802 | 21.11° C | 61% | 1007.4 hPa | 0 mm | - | 959 W/m² | - |
| 1777912501 | 21.11° C | 59% | 1007.6 hPa | 0 mm | - | 959 W/m² | - |
| 1777912202 | 20.56° C | 60% | 1007.6 hPa | 0 mm | - | 958 W/m² | - |
| 1777911902 | 20.56° C | 59% | 1007.7 hPa | 0 mm | - | 954 W/m² | - |
| 1777911602 | 20.56° C | 61% | 1007.7 hPa | 0 mm | - | 947 W/m² | - |
| 1777911301 | 20.56° C | 62% | 1007.7 hPa | 0 mm | - | 939 W/m² | - |
| 1777911002 | 20.56° C | 60% | 1007.6 hPa | 0 mm | - | 936 W/m² | - |
| 1777910702 | 20° C | 64% | 1007.8 hPa | 0 mm | - | 928 W/m² | - |
| 1777910403 | 20° C | 63% | 1007.7 hPa | 0 mm | - | 920 W/m² | - |
| 1777910102 | 20° C | 62% | 1007.5 hPa | 0 mm | - | 915 W/m² | - |
| 1777909802 | 20° C | 62% | 1007.8 hPa | 0 mm | - | 908 W/m² | - |
| 1777909501 | 20° C | 64% | 1007.8 hPa | 0 mm | - | 901 W/m² | - |
| 1777909202 | 20° C | 62% | 1008.2 hPa | 0 mm | - | 893 W/m² | - |
| 1777908902 | 20° C | 64% | 1008 hPa | 0 mm | - | 885 W/m² | - |
* Rain latest hour (hover to see other rain measurements)
** Current wind speed in m/s (hover to see current wind gust speed)